Location: Potomac
(46.8816°N, 113.5795°W)
Time: 14:26:23
(UTC+00:00)

UKube-1 - Visible Passes

Search period start: 25 June 2022 00:00
Search period end: 05 July 2022 00:00
Orbit: 610 x 614 km, 98.4° (Epoch: 25 June)

Date Brightness Start Highest point End Pass type
(mag) Time Alt. Az. Time Alt. Az. Time Alt. Az.
25 Jun ? 04:31:35 10° NE 04:34:29 17° E 04:37:01 11° SE visible
25 Jun ? 06:06:30 10° N 06:10:41 51° WNW 06:14:01 15° SW visible
26 Jun ? 04:45:57 10° NE 04:49:27 24° E 04:52:00 15° SE visible
26 Jun ? 06:21:29 10° N 06:25:27 36° WNW 06:29:01 12° SW visible
27 Jun ? 05:00:28 10° NNE 05:04:24 33° E 05:07:00 18° SSE visible
27 Jun ? 06:36:33 10° N 06:40:11 27° WNW 06:43:47 10° WSW visible
28 Jun ? 05:15:07 10° NNE 05:19:17 46° E 05:21:58 20° SSE visible
28 Jun ? 06:51:43 10° NNW 06:54:52 20° WNW 06:58:01 10° WSW visible
29 Jun ? 05:29:51 10° NNE 05:34:09 66° ESE 05:36:57 21° S visible
29 Jun ? 07:07:02 10° NNW 07:09:33 15° WNW 07:12:02 10° W visible
30 Jun ? 05:44:39 10° NNE 05:48:58 87° WNW 05:51:55 20° SSW visible
30 Jun ? 07:22:47 10° NW 07:24:10 11° WNW 07:25:33 10° WNW visible
01 Jul ? 04:25:06 10° ENE 04:27:28 14° E 04:29:48 10° ESE visible
01 Jul ? 05:59:30 10° N 06:03:46 62° WNW 06:06:52 18° SSW visible
02 Jul ? 04:39:15 10° NE 04:42:26 20° E 04:44:50 13° SE visible
02 Jul ? 06:14:26 10° N 06:18:32 44° WNW 06:21:50 15° SW visible
03 Jul ? 04:53:40 10° NE 04:57:21 27° E 04:59:46 17° SE visible
03 Jul ? 06:29:25 10° N 06:33:16 32° WNW 06:36:47 12° SW visible
04 Jul ? 05:08:13 10° NNE 05:12:15 38° E 05:14:43 20° SSE visible
04 Jul ? 06:44:30 10° N 06:47:58 24° WNW 06:51:24 10° WSW visible
